Zurück zum Katalog

COSMOS 1878

AktivNavigationPO
NORAD 18337·PAYLOAD·🇷🇺 Russia

Gestartet Sep 7, 1987 von Plesetsk Cosmodrome

Loading…

Nächste Überflüge (nächste 24 Stunden)

TLE

AktuellSource: Space-Track

Epoche: Sep 14, 2026, 21:48 UTC

1 18337U 87074D   26257.90861653  .00000009  00000-0 -94126-5 0  9995
2 18337  82.5664 235.1355 0003951  41.6869 333.4287 12.64388489800631

Verfolge COSMOS 1878 in Echtzeit mit AllMySat

Download on the App Store